Location: Santa Fe
(35.6870°N, 105.9370°W)
Time: 16:18:58
(UTC-06:00)

Amateur Radio Satellites - All Passes

Search period start: 01 October 2014 15:48
Search period end: 02 October 2014 15:48
Location: Santa Fe, 35.6870°N, 105.9370°W

Satellite Date Start Highest point End Downlink Frequencies (MHz)
Time Altitude Azimuth
JAS-1B 01 Oct 15:58:45 16:03:30 17° 265° (W) 16:07:51 435.800 - 435.900 CW/SSB
KITSAT 1 01 Oct 15:59:07 16:05:28 26° 105° (ESE) 16:11:50 435.175 FM
Gurwin Techsat 1B 01 Oct 16:13:39 16:17:36 21° 266° (W) 16:21:34 435.225 FM
TMSAT-1 01 Oct 16:43:04 16:46:04 15° 268° (W) 16:49:05 436.925 FM
Uosat F 01 Oct 17:01:52 17:06:46 58° 259° (W) 17:11:42 435.120 FM
OPAL 01 Oct 17:15:21 17:19:30 25° 98° (E) 17:23:35 ?
Hamsat 01 Oct 17:29:49 17:33:26 27° 71° (ENE) 17:37:03 145.90 MHz
Sapphire 01 Oct 17:32:21 17:33:58 11° 45° (NE) 17:35:35 437.095 MHz 1200 baud AX-25 AFSK
AO-7 01 Oct 17:34:17 17:41:47 38° 261° (W) 17:49:20 29.400 - 29.500 MHz
JAS-2 01 Oct 17:51:51 17:56:56 63° 74° (ENE) 18:02:14 435.800 - 435.900 CW/SSB, 435.910 FM
KITSAT 1 01 Oct 17:52:18 18:00:16 61° 301° (WNW) 18:08:16 435.175 FM
PCSat 01 Oct 17:56:10 18:00:00 19° 51° (NE) 18:03:49 145.825 MHz
AO-40 01 Oct 17:57:04 00:35:30 46° 183° (S) 06:33:31 Beacon 2401.320
SO-50 01 Oct 18:36:10 18:39:58 28° 112° (ESE) 18:43:51 436.795 FM
OPAL 01 Oct 18:53:52 18:58:21 32° 293° (WNW) 19:02:47 ?
Hamsat 01 Oct 19:05:57 19:09:19 22° 265° (W) 19:12:42 145.90 MHz
PANSAT 01 Oct 19:09:14 19:11:38 16° 163° (SSE) 19:14:01 not established
Sapphire 01 Oct 19:12:50 19:18:17 77° 63° (ENE) 19:23:42 437.095 MHz 1200 baud AX-25 AFSK
SO-67 01 Oct 19:15:31 19:18:53 55° 76° (ENE) 19:22:16 435.3500 MHz FM
HO-68 01 Oct 19:24:50 19:27:33 13° 55° (NE) 19:30:17 435.675 MHz FM
PCSat 01 Oct 19:38:28 19:43:47 57° 248° (WSW) 19:49:04 145.825 MHz
JAS-2 01 Oct 19:40:56 19:42:37 11° 270° (W) 19:44:19 435.800 - 435.900 CW/SSB, 435.910 FM
KITSAT 1 01 Oct 19:53:24 19:57:28 14° 324° (NW) 20:01:33 435.175 FM
STRAND 1 01 Oct 19:55:53 20:01:04 84° 103° (ESE) 20:06:13 ?
SO-50 01 Oct 20:16:39 20:20:27 27° 308° (NW) 20:24:21 436.795 FM
UOSAT-12 01 Oct 20:39:35 20:43:57 45° 115° (ESE) 20:48:25 437.025 FM, 437.400 FM
PANSAT 01 Oct 20:48:00 20:51:17 27° 176° (S) 20:54:33 not established
Sapphire 01 Oct 20:59:18 21:00:57 11° 258° (WSW) 21:02:36 437.095 MHz 1200 baud AX-25 AFSK
HO-68 01 Oct 21:06:57 21:14:03 76° 72° (ENE) 21:21:12 435.675 MHz FM
Oscar 11 01 Oct 21:25:22 21:29:08 29° 71° (ENE) 21:32:55 145.825 FM, Beacon 2401.500 USB
STRAND 1 01 Oct 21:38:28 21:39:30 11° 299° (WNW) 21:40:32 ?
ISS 01 Oct 21:47:50 21:51:08 80° 137° (SE) 21:54:28 145.800 FM
FUNcube-1 01 Oct 21:51:46 21:55:24 24° 69° (ENE) 21:59:06 145.950 - 145.970 MHz USB
UKube-1 01 Oct 21:54:57 21:59:16 90° 81° (E) 22:03:38 145.840 MHz, 145.915 MHz
Saudisat 1A 01 Oct 22:03:00 22:05:23 14° 46° (NE) 22:07:45 436.775 MHz
UOSAT-12 01 Oct 22:20:56 22:24:19 20° 311° (NW) 22:27:45 437.025 FM, 437.400 FM
PANSAT 01 Oct 22:27:51 22:31:00 24° 189° (S) 22:34:09 not established
ZACube-1 01 Oct 22:36:05 22:40:36 78° 76° (ENE) 22:45:13 437.345 MHz
HO-68 01 Oct 22:58:03 23:02:20 17° 268° (W) 23:06:39 435.675 MHz FM
Oscar 11 01 Oct 23:02:02 23:05:18 20° 265° (W) 23:08:34 145.825 FM, Beacon 2401.500 USB
ISS 01 Oct 23:26:21 23:28:12 14° 334° (NNW) 23:30:04 145.800 FM
FUNcube-1 01 Oct 23:27:46 23:31:37 28° 264° (W) 23:35:34 145.950 - 145.970 MHz USB
Saudisat 1A 01 Oct 23:40:59 23:45:21 62° 243° (WSW) 23:49:41 436.775 MHz
PANSAT 02 Oct 00:09:12 00:10:35 12° 200° (SSW) 00:11:58 not established
RS-15 02 Oct 00:36:29 00:43:28 19° 101° (E) 00:50:19 29.354 - 29.394 USB, Beacon 29.352 USB
Oscar 19 02 Oct 01:30:13 01:33:16 16° 93° (E) 01:36:17 437.125 CW, 437.150 USB
KITSAT 1 02 Oct 01:48:52 01:56:25 41° 53° (NE) 02:03:55 435.175 FM
JAS-1B 02 Oct 01:53:49 01:57:40 18° 95° (E) 02:01:45 435.800 - 435.900 CW/SSB
Oscar 16 02 Oct 02:09:59 02:14:52 42° 99° (E) 02:19:42 437.025 USB, Beacon 2401.1428
AO-Echo 02 Oct 02:12:16 02:16:07 21° 95° (E) 02:20:01 ?
AO-27 02 Oct 02:22:04 02:26:04 22° 95° (E) 02:30:02 436.795 MHz FM
RS-15 02 Oct 02:43:10 02:54:17 88° 298° (WNW) 03:05:16 29.354 - 29.394 USB, Beacon 29.352 USB
Gurwin Techsat 1B 02 Oct 02:52:28 02:56:24 21° 94° (E) 03:00:18 435.225 FM
Oscar 19 02 Oct 03:07:54 03:12:52 51° 287° (WNW) 03:17:48 437.125 CW, 437.150 USB
SO-50 02 Oct 03:10:53 03:13:47 16° 46° (NE) 03:16:42 436.795 FM
TMSAT-1 02 Oct 03:19:58 03:24:30 28° 96° (E) 03:29:01 436.925 FM
ITAMSAT 1 02 Oct 03:21:44 03:26:59 86° 103° (ESE) 03:32:13 435.822 SSB
Uribyol 2 02 Oct 03:22:21 03:27:37 88° 284° (WNW) 03:32:50 436.500 FM
JAS-1B 02 Oct 03:43:02 03:48:33 52° 288° (WNW) 03:54:38 435.800 - 435.900 CW/SSB
KITSAT 1 02 Oct 03:44:20 03:51:44 41° 251° (WSW) 03:59:07 435.175 FM
AO-7 02 Oct 03:48:28 03:52:41 15° 92° (E) 03:56:54 29.400 - 29.500 MHz
Oscar 16 02 Oct 03:50:11 03:53:52 20° 294° (WNW) 03:57:33 437.025 USB, Beacon 2401.1428
AO-Echo 02 Oct 03:50:15 03:54:56 39° 288° (WNW) 03:59:42 ?
AO-27 02 Oct 04:00:49 04:05:39 39° 289° (WNW) 04:10:28 436.795 MHz FM
ISS 02 Oct 04:19:10 04:22:03 27° 34° (NE) 04:24:56 145.800 FM
OPAL 02 Oct 04:27:07 04:31:46 34° 68° (ENE) 04:36:27 ?
Gurwin Techsat 1B 02 Oct 04:31:30 04:36:29 42° 289° (WNW) 04:41:26 435.225 FM
MaSat-1 02 Oct 04:46:21 04:50:26 27° 106° (ESE) 04:54:25 437.345 MHz
SO-50 02 Oct 04:49:59 04:54:48 67° 243° (WSW) 04:59:37 436.795 FM
RS-15 02 Oct 04:59:39 05:08:16 26° 323° (NW) 05:16:57 29.354 - 29.394 USB, Beacon 29.352 USB
TMSAT-1 02 Oct 04:59:44 05:04:21 31° 291° (WNW) 05:08:57 436.925 FM
ITAMSAT 1 02 Oct 05:04:41 05:05:42 11° 299° (WNW) 05:06:43 435.822 SSB
JAS-2 02 Oct 05:05:43 05:07:51 11° 90° (E) 05:10:01 435.800 - 435.900 CW/SSB, 435.910 FM
Uosat F 02 Oct 05:12:26 05:17:23 55° 101° (E) 05:22:18 435.120 FM
UOSAT-12 02 Oct 05:12:32 05:16:02 20° 49° (NE) 05:19:29 437.025 FM, 437.400 FM
AO-7 02 Oct 05:38:01 05:46:22 88° 107° (ESE) 05:54:41 29.400 - 29.500 MHz
ISS 02 Oct 05:55:52 05:58:41 26° 229° (SW) 06:01:29 145.800 FM
OPAL 02 Oct 06:06:22 06:10:38 26° 262° (W) 06:14:55 ?
MaSat-1 02 Oct 06:22:32 06:26:47 30° 299° (WNW) 06:30:51 437.345 MHz
JAS-2 02 Oct 06:46:31 06:53:25 79° 103° (ESE) 07:01:02 435.800 - 435.900 CW/SSB, 435.910 FM
UOSAT-12 02 Oct 06:51:54 06:56:23 44° 246° (WSW) 07:00:45 437.025 FM, 437.400 FM
Uosat F 02 Oct 06:52:45 06:55:40 16° 296° (WNW) 06:58:36 435.120 FM
Hamsat 02 Oct 06:53:29 06:57:41 81° 102° (ESE) 07:01:51 145.90 MHz
STRAND 1 02 Oct 07:08:54 07:13:59 89° 78° (ENE) 07:19:07 ?
RS-15 02 Oct 07:22:43 07:26:33 12° 359° (N) 07:30:25 29.354 - 29.394 USB, Beacon 29.352 USB
AO-7 02 Oct 07:32:47 07:38:04 19° 305° (NW) 07:43:22 29.400 - 29.500 MHz
Sapphire 02 Oct 08:11:15 08:14:07 15° 103° (ESE) 08:16:59 437.095 MHz 1200 baud AX-25 AFSK
SO-67 02 Oct 08:14:34 08:18:02 77° 282° (WNW) 08:21:27 435.3500 MHz FM
JAS-2 02 Oct 08:33:28 08:37:50 18° 297° (WNW) 08:42:28 435.800 - 435.900 CW/SSB, 435.910 FM
PCSat 02 Oct 08:34:46 08:39:18 28° 108° (ESE) 08:43:51 145.825 MHz
HO-68 02 Oct 08:40:12 08:44:11 15° 92° (E) 08:48:09 435.675 MHz FM
RS-15 02 Oct 09:36:29 09:45:03 24° 36° (NE) 09:53:47 29.354 - 29.394 USB, Beacon 29.352 USB
UKube-1 02 Oct 09:47:01 09:50:09 19° 95° (E) 09:53:15 145.840 MHz, 145.915 MHz
Sapphire 02 Oct 09:51:35 09:56:56 63° 299° (WNW) 10:02:19 437.095 MHz 1200 baud AX-25 AFSK
PCSat 02 Oct 10:17:38 10:22:32 35° 303° (WNW) 10:27:29 145.825 MHz
HO-68 02 Oct 10:25:19 10:32:31 81° 287° (WNW) 10:39:42 435.675 MHz FM
ZACube-1 02 Oct 10:29:30 10:32:44 19° 94° (E) 10:35:54 437.345 MHz
Oscar 11 02 Oct 10:51:16 10:55:37 90° 101° (ESE) 10:59:55 145.825 FM, Beacon 2401.500 USB
FUNcube-1 02 Oct 11:19:13 11:23:45 74° 101° (ESE) 11:28:09 145.950 - 145.970 MHz USB
UKube-1 02 Oct 11:22:29 11:26:21 32° 289° (WNW) 11:30:13 145.840 MHz, 145.915 MHz
RS-15 02 Oct 11:48:05 11:59:19 82° 60° (ENE) 12:11:03 29.354 - 29.394 USB, Beacon 29.352 USB
ZACube-1 02 Oct 12:05:08 12:09:11 33° 289° (WNW) 12:13:08 437.345 MHz
HO-68 02 Oct 12:15:49 12:19:06 14° 304° (NW) 12:22:22 435.675 MHz FM
JAS-1B 02 Oct 12:37:55 12:41:37 15° 63° (ENE) 12:45:04 435.800 - 435.900 CW/SSB
Oscar 19 02 Oct 12:44:23 12:47:53 19° 65° (ENE) 12:51:22 437.125 CW, 437.150 USB
Uribyol 2 02 Oct 13:02:05 13:03:44 12° 62° (ENE) 13:05:22 436.500 FM
ITAMSAT 1 02 Oct 13:02:20 13:03:17 11° 61° (ENE) 13:04:14 435.822 SSB
AO-Echo 02 Oct 13:23:21 13:26:36 19° 67° (ENE) 13:29:53 ?
Oscar 16 02 Oct 13:23:59 13:28:56 46° 72° (ENE) 13:33:53 437.025 USB, Beacon 2401.1428
AO-27 02 Oct 13:37:33 13:41:43 25° 67° (ENE) 13:45:55 436.795 MHz FM
Saudisat 1A 02 Oct 13:44:21 13:48:42 69° 117° (ESE) 13:53:05 436.775 MHz
RS-15 02 Oct 14:02:24 14:10:27 23° 258° (WSW) 14:18:46 29.354 - 29.394 USB, Beacon 29.352 USB
Gurwin Techsat 1B 02 Oct 14:10:47 14:15:03 25° 68° (ENE) 14:19:20 435.225 FM
Oscar 19 02 Oct 14:21:49 14:26:48 48° 260° (W) 14:31:50 437.125 CW, 437.150 USB
JAS-1B 02 Oct 14:23:53 14:31:44 84° 256° (WSW) 14:38:17 435.800 - 435.900 CW/SSB
ITAMSAT 1 02 Oct 14:36:50 14:42:00 85° 256° (WSW) 14:47:13 435.822 SSB
Uribyol 2 02 Oct 14:37:18 14:42:28 79° 257° (WSW) 14:47:42 436.500 FM
TMSAT-1 02 Oct 14:37:55 14:42:36 33° 70° (ENE) 14:47:18 436.925 FM
MaSat-1 02 Oct 14:40:45 14:43:02 18° 57° (ENE) 14:45:07 437.345 MHz
AO-7 02 Oct 14:44:49 14:50:02 19° 55° (NE) 14:55:14 29.400 - 29.500 MHz
Oscar 10/S400 02 Oct 14:51:27 15:10:36 41° 151° (SSE) 15:31:47 145.825 - 145.975 CW/USB, Beacon 145.810 USB
AO-Echo 02 Oct 15:00:45 15:05:05 37° 262° (W) 15:09:27 ?
Oscar 16 02 Oct 15:05:00 15:08:28 18° 266° (W) 15:11:57 437.025 USB, Beacon 2401.1428
AO-27 02 Oct 15:16:23 15:21:02 34° 262° (W) 15:25:43 436.795 MHz FM
Saudisat 1A 02 Oct 15:26:41 15:28:44 13° 314° (NW) 15:30:47 436.775 MHz
